Tracking 31027 objects as of 19-Jul-2025
HD Live streaming from Space Station
objects crossing your sky now

STARLINK-30940

Track STARLINK-30940 now!
10-day predictions
STARLINK-30940 is classified as:


NORAD ID: 58409
Int'l Code: 2023-180H
Perigee: 494.4 km
Apogee: 496.0 km
Inclination: 43.0 °
Period: 94.4 minutes
Semi major axis: 6866 km
RCS: Unknown
Launch date: November 22, 2023
Source: United States (US)
Launch site: AIR FORCE EASTERN TEST RANGE (AFETR)
Your satellite tracking list
DELTA 1 DEB
Track 1 satellite(s)




NASA's NSSDC Master Catalog

Two Line Element Set (TLE):
1 58409U 23180H   25199.86714812  .00000157  00000-0  15835-4 0  9992
2 58409  43.0009 146.0592 0001127 269.4089  90.6633 15.25907900 93591
Source of the keplerian elements: AFSPC